Miscellaneous Local Product
Issued by NWS North Platte, NE

Home | Current Version | Previous Version | Graphics & Text | Print | Product List | Glossary On
Versions: 1 2 3 4 5 6 7 8 9 10 11 12 13 14 15 16 17 18 19 20 21 22 23 24 25 26 27 28 29 30 31 32 33 34 35 36 37 38 39 40 41 42 43 44 45 46 47 48 49 50
000
AXUS43 KLBF 281110
MISLBF


WESTERN AND NORTH CENTRAL NEBRASKA HOURLY WEATHER ROUNDUP
NATIONAL WEATHER SERVICE NORTH PLATTE NE
600 AM CDT FRI AUG 28 2015

NOTE: "FAIR" INDICATES FEW OR NO CLOUDS BELOW 12,000 FEET WITH NO
SIGNIFICANT WEATHER AND/OR OBSTRUCTIONS TO VISIBILITY.

NOTE: STATIONS NOT REPORTING VARIABLES SUCH AS SKY/WEATHER OR
PRESSURE ARE PROVIDED BY THE NEBRASKA DEPARTMENT OF
ROADS...RAWS...AND APRS NETWORKS...AND ARE NOT UNDER
NATIONAL WEATHER SERVICE QUALITY CONTROL.

...OBSERVATIONS IN AND NEAR THE EASTERN PANHANDLE OF NEBRASKA...

CITY           SKY/WX    TMP DP  RH WIND       PRES   REMARKS
PINE RIDGE     CLEAR     49  47  93 CALM      30.01S
CHADRON        CLEAR     52  50  93 SW8       30.01S
ALLIANCE       CLEAR     53  51  93 W8        30.03F
SIDNEY         PTCLDY    58  53  84 NW9       30.08F
CRESCENT LAKE    N/A     56  55  95 N3          N/A
BIG SPRINGS      N/A     57  55  93 W5          N/A
$$

...OBSERVATIONS IN NORTH CENTRAL NEBRASKA...

CITY           SKY/WX    TMP DP  RH WIND       PRES   REMARKS
THEDFORD       CLOUDY    65  64  93 NW10G16   29.96R
AINSWORTH      CLOUDY    67  67  98 NW14G21   29.90F
O`NEILL        CLOUDY    66  66  98 N6        29.88R THUNDER FOG
ORD            CLOUDY    67  65  93 NW9       29.84R
BROKEN BOW     CLOUDY    69  67  93 NW12      29.89R
SPRINGVIEW       N/A     66  64  94 CALM        N/A
SARGENT          N/A     66  65  98 CALM        N/A
CHAMBERS         N/A     66  64  95 N5          N/A
EWING            N/A     66  63  90 N3          N/A
$$

...OBSERVATIONS IN SOUTHWEST NEBRASKA AND FAR NORTHEAST COLORADO...

CITY           SKY/WX    TMP DP  RH WIND       PRES   REMARKS
WRAY           FAIR      60  57  91 W8        30.04S
HOLYOKE        FAIR      63  55  77 W13       30.04F
IMPERIAL       CLEAR     61  55  81 NW10      29.99F
OGALLALA       CLEAR     60  57  89 W10       30.00R
NORTH PLATTE   CLOUDY    64  62  93 NW10      29.95R
MCCOOK         CLEAR     65  62  90 W12       29.94R
LEXINGTON      CLEAR     68  66  94 NW10      29.89S
PAXTON           N/A     62  59  90 CALM        N/A
BRADY            N/A     65  62  91 CALM        N/A
CALLAWAY         N/A     67  66  96 NW8         N/A
$$

...OBSERVATIONS IN CENTRAL LINCOLN COUNTY AREA...

CITY           SKY/WX    TMP DP  RH WIND       PRES   REMARKS
N.P. AIRPORT   CLOUDY    64  62  93 NW10      29.95R
N.P. DOWNTOWN    N/A     64  62  94 CALM        N/A
N.P. SOUTHEAST   N/A     64  62  93 NW3         N/A
$$

...SOME OBSERVATIONS FROM AROUND THE REGION...

CITY           SKY/WX    TMP DP  RH WIND       PRES   REMARKS
DENVER         PTCLDY    60  53  77 W8        30.19R
LARAMIE        MOCLDY    46  44  93 SE6       30.32S
CHEYENNE       CLEAR     56  48  74 NW12      30.22S
SCOTTSBLUFF    CLEAR     56  54  93 NW8       30.07S
RAPID CITY     CLEAR     57  54  89 NE5       29.99S
PIERRE         CLOUDY    68  66  93 CALM      29.91S
WINNER         CLOUDY    67  65  93 NE9       29.91R FOG
SIOUX FALLS    CLOUDY    64  62  93 E8        29.90F
OMAHA          CLOUDY    68  66  93 SE12      29.82F
GRAND ISLAND   CLOUDY    66  65  96 NW9       29.83R FOG
KANSAS CITY    CLOUDY    69  63  81 S13       29.96F
WICHITA        CLOUDY    73  67  81 S10       29.92F
HAYS           PTCLDY    72  57  60 SW10      29.89S
LIBERAL        CLOUDY    72  64  78 SW7       30.00R
GOODLAND       CLEAR     60  56  86 W8        30.04R
$$



USA.gov is the U.S. government's official web portal to all federal, state and local government web resources and services.